Brainerd, MN

2:35 AM CDT on June 29, 2017 (GMT -0500)
Brainerd-Crow Wing County Regional

Weather History for KBRD - March, 2013

Change the Weather History Date:

Monday, March 4, 2013

  Actual Average Record
Temperature  
Mean Temperature 24 °F -  
Max Temperature 27 °F 35 °F 48 °F (1983)
Min Temperature 21 °F 10 °F -16 °F (1975)
Degree Days  
Heating Degree Days 41    
Moisture  
Dew Point 16 °F    
Average Humidity 71    
Maximum Humidity 84    
Minimum Humidity 44    
Precipitation  
Precipitation 0.09 in - - ()
Sea Level Pressure  
Sea Level Pressure 29.99 in    
Wind  
Wind Speed 8 mph (ESE)    
Max Wind Speed 17 mph    
Max Gust Speed 28 mph    
Visibility 3 miles    
Events Snow    
Averages and records for this station are not official NWS values.
T = Trace of Precipitation, MM = Missing Value Source: NWS Daily Summary

Daily Weather History Graph

Daily Weather History Graph

Search for Another Location

Airport or City:

Trip Planner

Search our weather history database for the weather conditions in past years. The results will help you decide how hot, cold, wet, or windy it might be!

Date:

Astronomy

Mar. 04, 2013 Rise Set
Actual Time 6:49 AM CST 6:07 PM CST
Civil Twilight 6:19 AM CST 6:37 PM CST
Nautical Twilight 5:44 AM CST 7:12 PM CST
Astronomical Twilight 5:09 AM CST 7:47 PM CST
Moon 1:14 AM CST (3/4) 10:34 AM CST (3/4)
Length of Visible Light 12h 17m
Length of Day
11h 17m
Waning Gibbous, 52% of the Moon is Illuminated
Mar 4
Waning Gibbous
Mar 4
Last Quarter
Mar 11
New
Mar 19
First Quarter
Mar 27
Full

Hourly Weather History & Observations

Time (CST) Temp. Windchill Dew Point Humidity Pressure Visibility Wind Dir Wind Speed Gust Speed Precip Events Conditions
12:53 AM 26.1 °F 17.6 °F 8.1 °F 47% 30.02 in 10.0 mi ESE 8.1 mph - N/A   Overcast
1:53 AM 26.1 °F 18.4 °F 8.1 °F 47% 30.02 in 10.0 mi ESE 6.9 mph - N/A   Overcast
2:53 AM 25.0 °F 16.3 °F 6.1 °F 45% 30.01 in 10.0 mi ESE 8.1 mph - N/A   Overcast
3:53 AM 24.1 °F 17.0 °F 5.0 °F 44% 30.00 in 10.0 mi ESE 5.8 mph - N/A   Overcast
4:53 AM 24.1 °F 17.0 °F 6.1 °F 46% 30.00 in 10.0 mi ESE 5.8 mph - N/A   Overcast
5:53 AM 23.0 °F 13.9 °F 6.1 °F 48% 30.00 in 10.0 mi ESE 8.1 mph - N/A   Overcast
6:53 AM 23.0 °F 14.7 °F 7.0 °F 50% 30.01 in 10.0 mi ESE 6.9 mph - N/A   Overcast
7:45 AM 21.2 °F 8.9 °F 8.6 °F 58% 29.96 in 3.0 mi SE 12.7 mph 17.3 mph 0.00 in Snow Light Snow
7:53 AM 21.9 °F 13.4 °F 10.0 °F 60% 30.02 in 2.0 mi ESE 6.9 mph 17.3 mph 0.00 in Snow Light Snow
8:06 AM 21.2 °F 11.7 °F 10.4 °F 63% 29.96 in 1.8 mi ESE 8.1 mph - 0.00 in Snow Light Snow
8:29 AM 21.2 °F 11.7 °F 10.4 °F 63% 29.96 in 2.0 mi ESE 8.1 mph 16.1 mph 0.00 in Snow Light Snow
8:46 AM 21.2 °F 11.7 °F 12.2 °F 68% 29.96 in 2.5 mi ESE 8.1 mph - 0.00 in Snow Light Snow
8:53 AM 21.9 °F 11.7 °F 10.9 °F 63% 30.02 in 2.5 mi East 9.2 mph 16.1 mph 0.00 in Snow Light Snow
9:00 AM 21.2 °F 8.9 °F 12.2 °F 68% 29.96 in 1.8 mi ESE 12.7 mph 18.4 mph 0.00 in Snow Light Snow
9:16 AM 21.2 °F 11.7 °F 12.2 °F 68% 29.96 in 1.5 mi ESE 8.1 mph - 0.00 in Snow Light Snow
9:50 AM 23.0 °F 13.1 °F 14.0 °F 68% 29.96 in 1.8 mi ESE 9.2 mph 17.3 mph 0.00 in Snow Light Snow
9:53 AM 23.0 °F 13.1 °F 15.1 °F 72% 30.01 in 1.8 mi East 9.2 mph 17.3 mph 0.00 in Snow Light Snow
10:02 AM 23.0 °F 14.7 °F 15.8 °F 74% 29.95 in 2.0 mi ESE 6.9 mph - 0.00 in Snow Light Snow
10:46 AM 23.0 °F 11.1 °F 15.8 °F 74% 29.95 in 1.2 mi ESE 12.7 mph 23.0 mph 0.00 in Snow Light Snow
10:53 AM 23.0 °F 12.4 °F 16.0 °F 74% 30.00 in 1.2 mi East 10.4 mph 27.6 mph 0.00 in Snow Light Snow
11:02 AM 24.8 °F 11.5 °F 15.8 °F 69% 29.95 in 1.8 mi ESE 17.3 mph 23.0 mph 0.00 in Snow Light Snow
11:10 AM 24.8 °F 11.5 °F 15.8 °F 69% 29.95 in 2.0 mi SE 17.3 mph 24.2 mph 0.00 in Snow Light Snow
11:24 AM 24.8 °F 14.6 °F 15.8 °F 69% 29.94 in 3.0 mi ESE 10.4 mph 21.9 mph 0.00 in Snow Light Snow
11:53 AM 25.0 °F 16.3 °F 16.0 °F 69% 29.99 in 4.0 mi ESE 8.1 mph 24.2 mph 0.00 in Snow Light Snow
12:05 PM 24.8 °F 15.3 °F 15.8 °F 69% 29.94 in 2.5 mi ESE 9.2 mph 23.0 mph 0.00 in Snow Light Snow
12:15 PM 24.8 °F 14.6 °F 15.8 °F 69% 29.94 in 3.0 mi ESE 10.4 mph 19.6 mph 0.00 in Snow Light Snow
12:53 PM 25.0 °F 14.2 °F 17.1 °F 72% 29.99 in 2.5 mi ESE 11.5 mph 23.0 mph 0.00 in Snow Light Snow
1:12 PM 26.6 °F 16.8 °F 17.6 °F 69% 29.92 in 3.0 mi ESE 10.4 mph 23.0 mph 0.00 in Snow Light Snow
1:26 PM 26.6 °F 16.8 °F 17.6 °F 69% 29.92 in 2.5 mi ESE 10.4 mph 25.3 mph 0.00 in Snow Light Snow
1:35 PM 26.6 °F 15.7 °F 17.6 °F 69% 29.92 in 1.2 mi SE 12.7 mph 23.0 mph 0.00 in Snow Light Snow
1:45 PM 26.6 °F 18.2 °F 17.6 °F 69% 29.92 in 2.0 mi SE 8.1 mph 21.9 mph 0.00 in Snow Light Snow
1:53 PM 26.1 °F 18.4 °F 18.0 °F 71% 29.99 in 2.5 mi SE 6.9 mph - 0.00 in Snow Light Snow
2:06 PM 26.6 °F 18.2 °F 17.6 °F 69% 29.93 in 3.0 mi SE 8.1 mph - 0.00 in Snow Light Snow
2:53 PM 27.0 °F 18.0 °F 16.0 °F 63% 29.99 in 10.0 mi SE 9.2 mph - 0.00 in   Overcast
3:53 PM 26.1 °F 16.8 °F 17.1 °F 69% 30.01 in 6.0 mi ESE 9.2 mph 20.7 mph 0.00 in   Overcast
4:53 PM 26.1 °F 17.6 °F 16.0 °F 66% 30.02 in 6.0 mi ESE 8.1 mph 16.1 mph 0.01 in Snow Light Snow
5:53 PM 25.0 °F 17.1 °F 17.1 °F 72% 30.02 in 6.0 mi ESE 6.9 mph 16.1 mph 0.00 in   Overcast
6:44 PM 24.8 °F 16.9 °F 17.6 °F 74% 29.97 in 2.0 mi Variable 6.9 mph - 0.01 in Snow Light Snow
6:49 PM 24.8 °F 17.9 °F 17.6 °F 74% 29.97 in 1.2 mi ESE 5.8 mph - 0.01 in Snow Light Snow
6:53 PM 25.0 °F 16.3 °F 19.0 °F 78% 30.04 in 1.0 mi ESE 8.1 mph - 0.01 in Snow Light Snow
7:00 PM 24.8 °F 19.1 °F 19.4 °F 80% 29.97 in 0.8 mi East 4.6 mph - 0.00 in Snow Light Snow
7:10 PM 24.8 °F 17.9 °F 19.4 °F 80% 29.97 in 0.8 mi Variable 5.8 mph - 0.01 in Snow Light Snow
7:21 PM 24.8 °F 19.1 °F 19.4 °F 80% 29.98 in 1.0 mi Variable 4.6 mph - 0.01 in Snow Light Snow
7:31 PM 24.8 °F 16.9 °F 19.4 °F 80% 29.99 in 1.2 mi ESE 6.9 mph - 0.01 in Snow Light Snow
7:35 PM 24.8 °F 19.1 °F 19.4 °F 80% 29.98 in 1.8 mi ESE 4.6 mph - 0.01 in Snow Light Snow
7:44 PM 24.8 °F 17.9 °F 19.4 °F 80% 29.99 in 2.0 mi ESE 5.8 mph - 0.01 in Snow Light Snow
7:53 PM 25.0 °F 18.1 °F 19.9 °F 81% 30.05 in 1.2 mi ESE 5.8 mph - 0.02 in Snow Light Snow
8:08 PM 24.8 °F 20.5 °F 19.4 °F 80% 29.99 in 0.8 mi ESE 3.5 mph - 0.01 in Snow Light Snow
8:19 PM 24.8 °F 16.9 °F 19.4 °F 80% 29.99 in 3.0 mi ESE 6.9 mph - 0.01 in Snow Light Snow
8:25 PM 24.8 °F 16.9 °F 19.4 °F 80% 30.01 in 1.8 mi ESE 6.9 mph - 0.01 in Snow Light Snow
8:29 PM 24.8 °F 17.9 °F 19.4 °F 80% 30.00 in 1.0 mi SE 5.8 mph - 0.01 in Snow Light Snow
8:38 PM 24.8 °F 17.9 °F 19.4 °F 80% 30.00 in 1.0 mi ESE 5.8 mph - 0.02 in Snow Light Snow
8:53 PM 25.0 °F 18.1 °F 19.9 °F 81% 30.08 in 1.2 mi ESE 5.8 mph - 0.03 in Snow Light Snow
9:08 PM 24.8 °F 17.9 °F 19.4 °F 80% 30.02 in 1.5 mi SE 5.8 mph - 0.00 in Snow Light Snow
9:35 PM 24.8 °F 19.1 °F 19.4 °F 80% 30.00 in 2.0 mi Variable 4.6 mph - 0.00 in Snow Light Snow
9:53 PM 25.0 °F 18.1 °F 19.9 °F 81% 30.05 in 2.0 mi East 5.8 mph - 0.00 in Snow Light Snow
10:21 PM 24.8 °F 17.9 °F 19.4 °F 80% 30.01 in 1.8 mi ESE 5.8 mph - 0.00 in Snow Light Snow
10:43 PM 24.8 °F 19.1 °F 19.4 °F 80% 30.01 in 1.2 mi Variable 4.6 mph - 0.00 in Snow Light Snow
10:53 PM 24.1 °F - 19.9 °F 84% 30.07 in 0.8 mi Calm Calm - 0.01 in Snow Light Snow
11:06 PM 24.8 °F - 19.4 °F 80% 30.01 in 1.0 mi Calm Calm - 0.01 in Snow Light Snow
11:17 PM 24.8 °F - 19.4 °F 80% 30.01 in 1.2 mi Calm Calm - 0.01 in Snow Light Snow
11:25 PM 24.8 °F - 19.4 °F 80% 30.01 in 1.5 mi Calm Calm - 0.01 in Snow Light Snow
11:39 PM 24.8 °F 19.1 °F 19.4 °F 80% 30.00 in 1.2 mi ESE 4.6 mph - 0.01 in Snow Light Snow
11:48 PM 24.8 °F 19.1 °F 19.4 °F 80% 29.99 in 1.5 mi Variable 4.6 mph - 0.01 in Snow Light Snow
11:53 PM 24.1 °F 15.2 °F 19.9 °F 84% 30.06 in 1.5 mi East 8.1 mph - 0.01 in Snow Light Snow